SJV800 WIII-WILL

Flight info

Callsign SJV800
Flight time 0h 25m
Altitude 16000
Route GUDBA
Aircraft A320/M-SDE3FGHIRWY/LB1

Departure

Time 2026-04-25 12:29
Airport Soekarno-Hatta International Airport (WIII)

Arrival

Time 2026-04-25 12:54
Airport Radin Inten II International Airport (WILL)
Time Latitude Longitude Altitude Speed Heading
2026-04-25 12:11 -6.12048 106.65086 47 ft 0 kts 145°
2026-04-25 12:19 -6.12033 106.65075 47 ft 2 kts 131°
2026-04-25 12:19 -6.12024 106.65057 47 ft 2 kts 102°
2026-04-25 12:19 -6.12023 106.65042 47 ft 2 kts 81°
2026-04-25 12:20 -6.12028 106.65028 47 ft 2 kts 58°
2026-04-25 12:20 -6.12038 106.65016 47 ft 2 kts 37°
2026-04-25 12:20 -6.12051 106.65009 47 ft 2 kts 15°
2026-04-25 12:20 -6.12058 106.65008 47 ft 1 kts
2026-04-25 12:21 -6.12061 106.65007 47 ft 0 kts
2026-04-25 12:23 -6.12053 106.65009 47 ft 1 kts
2026-04-25 12:23 -6.12036 106.65011 47 ft 3 kts
2026-04-25 12:23 -6.12009 106.65015 47 ft 4 kts
2026-04-25 12:24 -6.11972 106.65020 47 ft 5 kts
2026-04-25 12:24 -6.11929 106.65012 47 ft 7 kts 336°
2026-04-25 12:24 -6.11881 106.64987 47 ft 8 kts 322°
2026-04-25 12:24 -6.11875 106.64933 47 ft 9 kts 245°
2026-04-25 12:25 -6.11903 106.64867 47 ft 10 kts 248°
2026-04-25 12:25 -6.11933 106.64793 47 ft 12 kts 248°
2026-04-25 12:25 -6.11966 106.64709 47 ft 13 kts 248°
2026-04-25 12:25 -6.12001 106.64621 47 ft 14 kts 248°
2026-04-25 12:26 -6.12038 106.64526 47 ft 14 kts 248°
2026-04-25 12:26 -6.12078 106.64427 47 ft 15 kts 248°
2026-04-25 12:26 -6.12119 106.64323 47 ft 16 kts 248°
2026-04-25 12:26 -6.12162 106.64217 47 ft 16 kts 248°
2026-04-25 12:27 -6.12206 106.64106 47 ft 17 kts 248°
2026-04-25 12:27 -6.12249 106.63997 47 ft 12 kts 249°
2026-04-25 12:27 -6.12258 106.63922 47 ft 9 kts 296°
2026-04-25 12:27 -6.12200 106.63885 47 ft 10 kts 349°
2026-04-25 12:28 -6.12128 106.63898 47 ft 6 kts 17°
2026-04-25 12:28 -6.12087 106.63919 47 ft 5 kts 56°
2026-04-25 12:28 -6.12077 106.63943 47 ft 14 kts 68°
2026-04-25 12:28 -6.11946 106.64266 47 ft 83 kts 68°
2026-04-25 12:29 -6.11656 106.65003 47 ft 140 kts 68°
2026-04-25 12:29 -6.11237 106.66029 258 ft 167 kts 66°
2026-04-25 12:29 -6.10809 106.67117 863 ft 167 kts 68°
2026-04-25 12:29 -6.10339 106.68123 1630 ft 159 kts 49°
2026-04-25 12:30 -6.09462 106.68803 2109 ft 163 kts 33°
2026-04-25 12:30 -6.08425 106.69366 2428 ft 176 kts 30°
2026-04-25 12:30 -6.07299 106.70001 2746 ft 192 kts 32°
2026-04-25 12:30 -6.06064 106.70743 3000 ft 214 kts 33°
2026-04-25 12:31 -6.04723 106.71571 3394 ft 232 kts 33°
2026-04-25 12:31 -6.03289 106.72463 3799 ft 250 kts 33°
2026-04-25 12:31 -6.01760 106.73415 4400 ft 260 kts 33°
2026-04-25 12:31 -6.00203 106.74361 5179 ft 263 kts 28°
2026-04-25 12:32 -5.98399 106.74788 5936 ft 273 kts
2026-04-25 12:32 -5.96556 106.74277 6718 ft 283 kts 333°
2026-04-25 12:32 -5.95101 106.72897 7450 ft 295 kts 304°
2026-04-25 12:32 -5.94205 106.71042 8216 ft 299 kts 296°
2026-04-25 12:33 -5.93356 106.69126 8962 ft 303 kts 296°
2026-04-25 12:33 -5.92483 106.67187 9669 ft 306 kts 296°
2026-04-25 12:33 -5.91582 106.65221 10332 ft 309 kts 297°
2026-04-25 12:33 -5.90644 106.63195 10704 ft 324 kts 296°
2026-04-25 12:34 -5.89664 106.61084 11127 ft 335 kts 296°
2026-04-25 12:34 -5.88660 106.58931 11749 ft 338 kts 296°
2026-04-25 12:34 -5.87655 106.56777 12361 ft 341 kts 296°
2026-04-25 12:34 -5.87322 106.56062 12559 ft 342 kts 296°
2026-04-25 12:35 -5.85634 106.52439 13504 ft 347 kts 296°
2026-04-25 12:35 -5.84604 106.50226 14058 ft 350 kts 296°
2026-04-25 12:35 -5.83565 106.47993 14597 ft 353 kts 296°
2026-04-25 12:35 -5.82526 106.45765 15118 ft 356 kts 296°
2026-04-25 12:36 -5.81458 106.43468 15645 ft 359 kts 296°
2026-04-25 12:36 -5.80400 106.41187 16118 ft 362 kts 296°
2026-04-25 12:36 -5.79331 106.38885 16347 ft 363 kts 296°
2026-04-25 12:36 -5.78259 106.36574 16362 ft 363 kts 296°
2026-04-25 12:37 -5.77184 106.34261 16365 ft 362 kts 296°
2026-04-25 12:37 -5.76117 106.31965 16366 ft 362 kts 296°
2026-04-25 12:37 -5.75045 106.29655 16365 ft 362 kts 296°
2026-04-25 12:37 -5.74069 106.27294 16366 ft 364 kts 291°
2026-04-25 12:38 -5.73296 106.24859 16367 ft 364 kts 286°
2026-04-25 12:38 -5.72677 106.22405 16366 ft 364 kts 285°
2026-04-25 12:38 -5.72073 106.19906 16367 ft 364 kts 284°
2026-04-25 12:38 -5.71471 106.17406 16367 ft 364 kts 284°
2026-04-25 12:39 -5.70873 106.14937 16368 ft 364 kts 284°
2026-04-25 12:39 -5.70268 106.12448 16363 ft 364 kts 285°
2026-04-25 12:39 -5.69662 106.09966 16112 ft 363 kts 285°
2026-04-25 12:39 -5.69065 106.07524 15786 ft 361 kts 284°
2026-04-25 12:40 -5.68463 106.05067 15434 ft 358 kts 284°
2026-04-25 12:40 -5.67871 106.02649 15052 ft 357 kts 284°
2026-04-25 12:40 -5.67275 106.00221 14646 ft 356 kts 284°
2026-04-25 12:40 -5.66678 105.97786 14230 ft 356 kts 284°
2026-04-25 12:41 -5.66083 105.95358 13811 ft 355 kts 284°
2026-04-25 12:41 -5.65493 105.92955 13397 ft 355 kts 284°
2026-04-25 12:41 -5.64900 105.90539 13007 ft 352 kts 284°
2026-04-25 12:41 -5.64322 105.88174 12844 ft 342 kts 284°
2026-04-25 12:42 -5.63753 105.85849 12412 ft 343 kts 284°
2026-04-25 12:42 -5.63564 105.85078 12178 ft 346 kts 285°
2026-04-25 12:42 -5.62587 105.81096 11343 ft 350 kts 285°
2026-04-25 12:42 -5.62003 105.78714 10895 ft 350 kts 285°
2026-04-25 12:43 -5.61415 105.76318 10456 ft 349 kts 285°
2026-04-25 12:43 -5.60828 105.73932 10109 ft 345 kts 285°
2026-04-25 12:43 -5.59698 105.69332 9543 ft 333 kts 285°
2026-04-25 12:44 -5.59147 105.67085 9250 ft 328 kts 285°
2026-04-25 12:44 -5.58598 105.64851 8961 ft 324 kts 286°
2026-04-25 12:44 -5.57541 105.60550 8146 ft 307 kts 286°
2026-04-25 12:45 -5.57033 105.58485 7787 ft 299 kts 286°
2026-04-25 12:45 -5.56513 105.56479 7445 ft 298 kts 290°
2026-04-25 12:45 -5.54639 105.52743 6638 ft 297 kts 306°
2026-04-25 12:46 -5.53517 105.50984 6314 ft 296 kts 306°
2026-04-25 12:46 -5.52385 105.49227 5977 ft 295 kts 306°
2026-04-25 12:46 -5.51283 105.47504 5637 ft 294 kts 306°
2026-04-25 12:46 -5.50199 105.45793 5294 ft 282 kts 306°
2026-04-25 12:47 -5.49170 105.44167 4973 ft 269 kts 306°
2026-04-25 12:47 -5.48171 105.42585 4666 ft 258 kts 306°
2026-04-25 12:47 -5.47231 105.41097 4371 ft 250 kts 306°
2026-04-25 12:47 -5.46297 105.39619 4075 ft 242 kts 306°
2026-04-25 12:48 -5.45402 105.38203 3790 ft 236 kts 306°
2026-04-25 12:48 -5.44537 105.36832 3526 ft 228 kts 306°
2026-04-25 12:48 -5.43713 105.35525 3477 ft 211 kts 307°
2026-04-25 12:48 -5.42954 105.34317 3543 ft 199 kts 307°
2026-04-25 12:49 -5.42140 105.33204 3467 ft 189 kts 316°
2026-04-25 12:49 -5.41225 105.32307 3418 ft 180 kts 324°
2026-04-25 12:49 -5.40272 105.31494 3364 ft 176 kts 325°
2026-04-25 12:49 -5.39354 105.30723 3291 ft 169 kts 326°
2026-04-25 12:50 -5.38439 105.29957 3211 ft 168 kts 325°
2026-04-25 12:50 -5.37541 105.29201 3117 ft 168 kts 325°
2026-04-25 12:50 -5.36643 105.28442 3006 ft 168 kts 324°
2026-04-25 12:50 -5.35747 105.27684 2790 ft 163 kts 324°
2026-04-25 12:51 -5.34886 105.26946 2535 ft 156 kts 325°
2026-04-25 12:51 -5.34076 105.26258 2314 ft 151 kts 325°
2026-04-25 12:51 -5.33286 105.25588 2126 ft 142 kts 324°
2026-04-25 12:51 -5.32548 105.24960 1942 ft 135 kts 324°
2026-04-25 12:52 -5.31821 105.24346 1782 ft 135 kts 324°
2026-04-25 12:52 -5.31097 105.23732 1614 ft 135 kts 324°
2026-04-25 12:52 -5.30379 105.23124 1438 ft 135 kts 323°
2026-04-25 12:52 -5.29651 105.22510 1277 ft 134 kts 322°
2026-04-25 12:53 -5.28933 105.21886 1046 ft 135 kts 321°
2026-04-25 12:53 -5.28224 105.21279 906 ft 134 kts 321°
2026-04-25 12:53 -5.27503 105.20667 735 ft 132 kts 319°
2026-04-25 12:53 -5.26800 105.20072 603 ft 133 kts 320°
2026-04-25 12:54 -5.26087 105.19464 439 ft 133 kts 319°
2026-04-25 12:54 -5.25382 105.18866 284 ft 131 kts 319°
2026-04-25 12:54 -5.24754 105.18333 272 ft 96 kts 320°
2026-04-25 12:54 -5.24374 105.18011 277 ft 46 kts 320°
2026-04-25 12:55 -5.24228 105.17886 278 ft 20 kts 319°
2026-04-25 12:55 -5.24192 105.17855 278 ft 20 kts 319°
2026-04-25 12:55 -5.24109 105.17783 279 ft 4 kts 310°
2026-04-25 12:55 -5.24115 105.17756 279 ft 4 kts 217°
2026-04-25 12:56 -5.24137 105.17735 280 ft 3 kts 227°
2026-04-25 12:56 -5.24149 105.17721 280 ft 0 kts 229°
2026-04-25 12:56 -5.24151 105.17719 280 ft 0 kts 230°
2026-04-25 12:56 -5.24153 105.17717 280 ft 0 kts 230°
2026-04-25 12:57 -5.24155 105.17714 280 ft 0 kts 230°
2026-04-25 12:57 -5.24162 105.17705 280 ft 3 kts 230°
2026-04-25 12:57 -5.24177 105.17688 281 ft 3 kts 230°
2026-04-25 12:57 -5.24192 105.17670 281 ft 3 kts 230°
2026-04-25 12:58 -5.24210 105.17648 281 ft 4 kts 230°
2026-04-25 12:58 -5.24215 105.17642 281 ft 0 kts 230°